AUA1960 LICR-LIPB

Flight info

Callsign AUA1960
Flight time 1h 26m
Altitude 38000
Route PAZZE Z854 AGNIS DCT GOSEB DCT IVMEP DCT CHI N503 VIC
Aircraft A320/M-SDE3FGHIRWY/LB1

Departure

Time 2026-04-23 13:43
Airport Reggio Calabria Airport (LICR)

Arrival

Time 2026-04-23 15:10
Airport Bolzano Airport (LIPB)
Time Latitude Longitude Altitude Speed Heading
2026-04-23 13:26 38.07411 15.65272 63 ft 0 kts 111°
2026-04-23 13:40 38.07406 15.65276 59 ft 0 kts 148°
2026-04-23 13:40 38.07391 15.65279 59 ft 4 kts 167°
2026-04-23 13:40 38.07339 15.65289 62 ft 10 kts 172°
2026-04-23 13:41 38.07254 15.65313 59 ft 15 kts 159°
2026-04-23 13:41 38.07138 15.65386 54 ft 18 kts 148°
2026-04-23 13:41 38.07034 15.65471 51 ft 15 kts 140°
2026-04-23 13:41 38.06972 15.65597 46 ft 19 kts 111°
2026-04-23 13:42 38.06926 15.65731 45 ft 11 kts 129°
2026-04-23 13:42 38.06916 15.65758 43 ft 1 kts 22°
2026-04-23 13:42 38.06921 15.65748 47 ft 2 kts 303°
2026-04-23 13:42 38.06923 15.65743 47 ft 0 kts 300°
2026-04-23 13:43 38.06947 15.65676 47 ft 41 kts 292°
2026-04-23 13:43 38.07173 15.64968 46 ft 127 kts 293°
2026-04-23 13:43 38.07587 15.63784 480 ft 153 kts 293°
2026-04-23 13:43 38.08092 15.62554 1372 ft 160 kts 297°
2026-04-23 13:44 38.08632 15.61292 2271 ft 171 kts 316°
2026-04-23 13:44 38.09738 15.60653 2677 ft 189 kts 348°
2026-04-23 13:44 38.11132 15.60397 3073 ft 215 kts 352°
2026-04-23 13:44 38.12704 15.60165 3567 ft 240 kts 352°
2026-04-23 13:45 38.13829 15.60001 3999 ft 251 kts 352°
2026-04-23 13:45 38.16148 15.59652 5276 ft 256 kts 351°
2026-04-23 13:45 38.17925 15.59368 6261 ft 259 kts 351°
2026-04-23 13:45 38.19726 15.59066 7154 ft 263 kts 350°
2026-04-23 13:46 38.21553 15.58746 8078 ft 266 kts 349°
2026-04-23 13:46 38.23394 15.58414 9015 ft 268 kts 349°
2026-04-23 13:46 38.25248 15.58075 9949 ft 271 kts 349°
2026-04-23 13:46 38.27152 15.57724 10490 ft 286 kts 349°
2026-04-23 13:47 38.29200 15.57342 10773 ft 308 kts 349°
2026-04-23 13:47 38.31360 15.56946 11376 ft 317 kts 349°
2026-04-23 13:47 38.33554 15.56548 12131 ft 320 kts 349°
2026-04-23 13:47 38.35768 15.56150 12900 ft 323 kts 349°
2026-04-23 13:48 38.38005 15.55747 13661 ft 326 kts 348°
2026-04-23 13:48 38.40266 15.55338 14355 ft 329 kts 348°
2026-04-23 13:48 38.42542 15.54927 15012 ft 332 kts 348°
2026-04-23 13:48 38.44841 15.54507 15675 ft 335 kts 348°
2026-04-23 13:49 38.47159 15.54087 16321 ft 338 kts 348°
2026-04-23 13:49 38.49498 15.53662 16975 ft 341 kts 347°
2026-04-23 13:49 38.51857 15.53233 17625 ft 344 kts 347°
2026-04-23 13:49 38.54235 15.52795 18292 ft 347 kts 347°
2026-04-23 13:50 38.56636 15.52353 18881 ft 350 kts 347°
2026-04-23 13:50 38.59063 15.51979 19480 ft 353 kts 349°
2026-04-23 13:50 38.61529 15.51737 20078 ft 357 kts 351°
2026-04-23 13:50 38.64018 15.51569 20664 ft 360 kts 351°
2026-04-23 13:51 38.66530 15.51429 21217 ft 363 kts 351°
2026-04-23 13:51 38.69061 15.51286 21757 ft 365 kts 351°
2026-04-23 13:51 38.71607 15.51132 22293 ft 368 kts 350°
2026-04-23 13:51 38.74170 15.50964 22831 ft 370 kts 349°
2026-04-23 13:52 38.76754 15.50782 23395 ft 373 kts 350°
2026-04-23 13:52 38.79350 15.50588 23866 ft 375 kts 350°
2026-04-23 13:52 38.81963 15.50385 24294 ft 378 kts 350°
2026-04-23 13:52 38.84596 15.50178 24724 ft 380 kts 350°
2026-04-23 13:53 38.87244 15.49972 25158 ft 382 kts 350°
2026-04-23 13:53 38.89910 15.49771 25584 ft 385 kts 350°
2026-04-23 13:53 38.92590 15.49576 26011 ft 387 kts 350°
2026-04-23 13:53 38.95287 15.49369 26430 ft 388 kts 348°
2026-04-23 13:54 38.97923 15.48769 26831 ft 383 kts 338°
2026-04-23 13:54 39.00374 15.47610 27233 ft 381 kts 331°
2026-04-23 13:54 39.02660 15.45895 27536 ft 382 kts 323°
2026-04-23 13:54 39.04847 15.43927 27905 ft 385 kts 322°
2026-04-23 13:55 39.07048 15.41941 28308 ft 387 kts 322°
2026-04-23 13:55 39.09261 15.39944 28716 ft 390 kts 323°
2026-04-23 13:55 39.11493 15.37941 29125 ft 392 kts 323°
2026-04-23 13:55 39.13742 15.35933 29530 ft 395 kts 323°
2026-04-23 13:56 39.16002 15.33911 29933 ft 397 kts 323°
2026-04-23 13:56 39.18278 15.31872 30287 ft 399 kts 323°
2026-04-23 13:56 39.20563 15.29819 30603 ft 402 kts 323°
2026-04-23 13:56 39.22864 15.27749 30910 ft 404 kts 323°
2026-04-23 13:57 39.25170 15.25674 31319 ft 405 kts 324°
2026-04-23 13:57 39.27491 15.23582 31593 ft 409 kts 324°
2026-04-23 13:57 39.29825 15.21473 31948 ft 410 kts 324°
2026-04-23 13:57 39.31051 15.20364 32166 ft 410 kts 324°
2026-04-23 13:58 39.33389 15.18252 32602 ft 410 kts 324°
2026-04-23 13:58 39.35721 15.16143 33050 ft 409 kts 324°
2026-04-23 13:58 39.38054 15.14032 33501 ft 409 kts 324°
2026-04-23 13:58 39.40384 15.11927 33962 ft 408 kts 324°
2026-04-23 13:59 39.42710 15.09822 34367 ft 408 kts 324°
2026-04-23 13:59 39.44250 15.08425 34602 ft 408 kts 324°
2026-04-23 13:59 39.46574 15.06314 34949 ft 409 kts 324°
2026-04-23 13:59 39.48900 15.04198 35281 ft 409 kts 324°
2026-04-23 14:00 39.51233 15.02075 35571 ft 411 kts 325°
2026-04-23 14:00 39.53576 14.99944 35842 ft 412 kts 325°
2026-04-23 14:00 39.55924 14.97809 36168 ft 412 kts 325°
2026-04-23 14:00 39.58271 14.95675 36488 ft 412 kts 325°
2026-04-23 14:01 39.60618 14.93536 36796 ft 413 kts 325°
2026-04-23 14:01 39.62967 14.91393 37091 ft 413 kts 325°
2026-04-23 14:01 39.65318 14.89246 37394 ft 413 kts 325°
2026-04-23 14:01 39.67669 14.87098 37687 ft 413 kts 325°
2026-04-23 14:02 39.70021 14.84947 37976 ft 414 kts 325°
2026-04-23 14:02 39.72379 14.82787 38085 ft 416 kts 325°
2026-04-23 14:02 39.74762 14.80598 38096 ft 423 kts 325°
2026-04-23 14:03 39.79760 14.76376 38095 ft 433 kts 335°
2026-04-23 14:03 39.85573 14.74332 38097 ft 437 kts 352°
2026-04-23 14:04 39.91613 14.73429 38095 ft 437 kts 352°
2026-04-23 14:04 39.97659 14.72514 38096 ft 437 kts 352°
2026-04-23 14:05 40.03698 14.71587 38090 ft 437 kts 352°
2026-04-23 14:05 40.09735 14.70646 38094 ft 437 kts 352°
2026-04-23 14:06 40.15773 14.69703 38103 ft 437 kts 352°
2026-04-23 14:06 40.21813 14.68765 38113 ft 437 kts 352°
2026-04-23 14:07 40.27858 14.67829 38115 ft 437 kts 352°
2026-04-23 14:07 40.36887 14.66443 38115 ft 437 kts 352°
2026-04-23 14:08 40.42968 14.65494 38120 ft 437 kts 353°
2026-04-23 14:08 40.49012 14.64550 38123 ft 437 kts 353°
2026-04-23 14:09 40.55012 14.63616 38122 ft 437 kts 353°
2026-04-23 14:09 40.61055 14.62673 38122 ft 437 kts 353°
2026-04-23 14:10 40.67094 14.61724 38127 ft 437 kts 353°
2026-04-23 14:10 40.73132 14.60772 38132 ft 437 kts 353°
2026-04-23 14:11 40.79163 14.59820 38128 ft 436 kts 353°
2026-04-23 14:11 40.85189 14.58876 38122 ft 436 kts 354°
2026-04-23 14:12 40.91217 14.57935 38124 ft 436 kts 354°
2026-04-23 14:12 40.97242 14.56983 38126 ft 436 kts 353°
2026-04-23 14:13 41.03260 14.56021 38133 ft 435 kts 353°
2026-04-23 14:13 41.09274 14.55066 38117 ft 436 kts 353°
2026-04-23 14:14 41.15305 14.54114 38117 ft 437 kts 353°
2026-04-23 14:14 41.19829 14.53392 38129 ft 438 kts 353°
2026-04-23 14:15 41.25876 14.52425 38130 ft 438 kts 353°
2026-04-23 14:15 41.31932 14.51455 38149 ft 438 kts 354°
2026-04-23 14:16 41.37979 14.50488 38146 ft 438 kts 354°
2026-04-23 14:16 41.43989 14.49528 38149 ft 437 kts 354°
2026-04-23 14:17 41.50029 14.48498 38146 ft 439 kts 350°
2026-04-23 14:17 41.55771 14.45667 38145 ft 443 kts 337°
2026-04-23 14:18 41.61375 14.42197 38144 ft 444 kts 338°
2026-04-23 14:18 41.66993 14.38732 38156 ft 445 kts 338°
2026-04-23 14:19 41.72612 14.35255 38150 ft 445 kts 338°
2026-04-23 14:19 41.78246 14.31770 38153 ft 446 kts 338°
2026-04-23 14:20 41.83886 14.28267 38160 ft 447 kts 338°
2026-04-23 14:20 41.89527 14.24760 38171 ft 447 kts 338°
2026-04-23 14:21 41.95170 14.21233 38156 ft 448 kts 338°
2026-04-23 14:21 42.00820 14.17693 38167 ft 448 kts 338°
2026-04-23 14:22 42.06470 14.14162 38166 ft 448 kts 338°
2026-04-23 14:22 42.12125 14.10618 38178 ft 449 kts 338°
2026-04-23 14:23 42.17786 14.07060 38175 ft 449 kts 338°
2026-04-23 14:23 42.23413 14.03520 38179 ft 449 kts 338°
2026-04-23 14:24 42.29079 13.99943 38195 ft 450 kts 338°
2026-04-23 14:24 42.34750 13.96354 38201 ft 450 kts 338°
2026-04-23 14:25 42.40422 13.92758 38181 ft 451 kts 338°
2026-04-23 14:25 42.45975 13.89232 38183 ft 452 kts 338°
2026-04-23 14:26 42.51564 13.85679 38187 ft 453 kts 338°
2026-04-23 14:26 42.57180 13.82100 38183 ft 453 kts 338°
2026-04-23 14:27 42.62762 13.78535 38178 ft 455 kts 338°
2026-04-23 14:27 42.68364 13.74948 38183 ft 456 kts 338°
2026-04-23 14:28 42.73953 13.71371 38189 ft 456 kts 338°
2026-04-23 14:28 42.79491 13.67816 38197 ft 456 kts 338°
2026-04-23 14:29 42.85197 13.64145 38196 ft 457 kts 338°
2026-04-23 14:29 42.90940 13.60439 38195 ft 457 kts 338°
2026-04-23 14:30 42.96683 13.56721 38206 ft 457 kts 338°
2026-04-23 14:30 43.02429 13.52995 38207 ft 457 kts 338°
2026-04-23 14:31 43.07968 13.49399 38188 ft 457 kts 339°
2026-04-23 14:31 43.13711 13.45669 38216 ft 456 kts 339°
2026-04-23 14:32 43.19440 13.41939 38215 ft 456 kts 339°
2026-04-23 14:32 43.25164 13.38194 38206 ft 456 kts 339°
2026-04-23 14:33 43.30911 13.34533 38214 ft 454 kts 341°
2026-04-23 14:33 43.36730 13.31169 38218 ft 453 kts 342°
2026-04-23 14:34 43.42560 13.27849 38211 ft 453 kts 341°
2026-04-23 14:34 43.48369 13.24466 38216 ft 453 kts 341°
2026-04-23 14:35 43.54115 13.21054 38227 ft 452 kts 341°
2026-04-23 14:35 43.59889 13.17626 38234 ft 452 kts 341°
2026-04-23 14:36 43.65662 13.14215 38234 ft 451 kts 341°
2026-04-23 14:36 43.71432 13.10798 38213 ft 451 kts 341°
2026-04-23 14:37 43.77198 13.07375 38219 ft 451 kts 341°
2026-04-23 14:37 43.82956 13.03938 38221 ft 450 kts 341°
2026-04-23 14:38 43.88708 13.00500 38208 ft 450 kts 341°
2026-04-23 14:38 43.94465 12.97061 38219 ft 450 kts 341°
2026-04-23 14:39 44.00222 12.93612 38224 ft 450 kts 341°
2026-04-23 14:39 44.05967 12.90152 38224 ft 450 kts 341°
2026-04-23 14:40 44.11712 12.86688 38226 ft 450 kts 341°
2026-04-23 14:40 44.17457 12.83231 38228 ft 450 kts 341°
2026-04-23 14:41 44.23202 12.79756 38226 ft 450 kts 341°
2026-04-23 14:41 44.28951 12.76268 38198 ft 451 kts 341°
2026-04-23 14:42 44.34704 12.72774 38210 ft 451 kts 341°
2026-04-23 14:42 44.40461 12.69272 38218 ft 451 kts 341°
2026-04-23 14:43 44.46231 12.65753 37542 ft 452 kts 341°
2026-04-23 14:43 44.49108 12.63994 36999 ft 449 kts 340°
2026-04-23 14:43 44.51966 12.62245 36739 ft 449 kts 340°
2026-04-23 14:44 44.54837 12.60489 36470 ft 451 kts 340°
2026-04-23 14:44 44.57713 12.58730 36224 ft 451 kts 340°
2026-04-23 14:44 44.60594 12.56967 35971 ft 452 kts 340°
2026-04-23 14:44 44.63436 12.55219 35723 ft 452 kts 340°
2026-04-23 14:45 44.65384 12.54019 35545 ft 453 kts 340°
2026-04-23 14:45 44.69214 12.51659 35218 ft 454 kts 340°
2026-04-23 14:45 44.72110 12.49874 34958 ft 455 kts 340°
2026-04-23 14:45 44.75006 12.48088 34718 ft 455 kts 340°
2026-04-23 14:46 44.77903 12.46299 34473 ft 455 kts 340°
2026-04-23 14:46 44.80804 12.44502 34235 ft 456 kts 340°
2026-04-23 14:46 44.83705 12.42702 33969 ft 456 kts 340°
2026-04-23 14:46 44.86614 12.40904 33692 ft 456 kts 340°
2026-04-23 14:47 44.89524 12.39101 33423 ft 457 kts 340°
2026-04-23 14:47 44.92431 12.37296 33146 ft 456 kts 340°
2026-04-23 14:47 44.95335 12.35489 32870 ft 456 kts 340°
2026-04-23 14:47 44.98237 12.33680 32617 ft 456 kts 340°
2026-04-23 14:48 45.01130 12.31872 32340 ft 450 kts 340°
2026-04-23 14:48 45.03952 12.30101 32071 ft 438 kts 340°
2026-04-23 14:48 45.05779 12.28934 31904 ft 432 kts 338°
2026-04-23 14:48 45.08359 12.26798 31644 ft 429 kts 329°
2026-04-23 14:49 45.10747 12.24292 31389 ft 426 kts 328°
2026-04-23 14:49 45.13107 12.21787 31134 ft 423 kts 328°
2026-04-23 14:49 45.15456 12.19290 30885 ft 420 kts 328°
2026-04-23 14:49 45.17785 12.16814 30596 ft 416 kts 328°
2026-04-23 14:50 45.20093 12.14364 30048 ft 413 kts 328°
2026-04-23 14:50 45.22384 12.11936 29510 ft 409 kts 328°
2026-04-23 14:50 45.24647 12.09530 28998 ft 405 kts 328°
2026-04-23 14:50 45.26886 12.07147 28506 ft 400 kts 328°
2026-04-23 14:51 45.29060 12.04828 28003 ft 396 kts 328°
2026-04-23 14:51 45.31154 12.02597 27569 ft 393 kts 328°
2026-04-23 14:51 45.33317 12.00297 27108 ft 389 kts 328°
2026-04-23 14:51 45.35480 11.97998 26657 ft 386 kts 328°
2026-04-23 14:52 45.37622 11.95715 26211 ft 383 kts 327°
2026-04-23 14:52 45.39744 11.93448 25787 ft 381 kts 327°
2026-04-23 14:52 45.41854 11.91190 25372 ft 378 kts 327°
2026-04-23 14:52 45.43947 11.88951 24960 ft 374 kts 327°
2026-04-23 14:53 45.46019 11.86732 24535 ft 372 kts 327°
2026-04-23 14:53 45.48078 11.84518 24129 ft 369 kts 327°
2026-04-23 14:53 45.50116 11.82322 23692 ft 367 kts 327°
2026-04-23 14:53 45.52146 11.80133 23221 ft 364 kts 327°
2026-04-23 14:54 45.54151 11.77971 22793 ft 359 kts 327°
2026-04-23 14:54 45.56135 11.75837 22339 ft 356 kts 327°
2026-04-23 14:54 45.58100 11.73723 21909 ft 351 kts 327°
2026-04-23 14:54 45.60044 11.71628 21461 ft 349 kts 327°
2026-04-23 14:55 45.61975 11.69541 21010 ft 347 kts 327°
2026-04-23 14:55 45.63865 11.67414 20555 ft 347 kts 322°
2026-04-23 14:55 45.65561 11.65028 20111 ft 346 kts 319°
2026-04-23 14:55 45.67260 11.62596 19657 ft 345 kts 319°
2026-04-23 14:56 45.68952 11.60180 19195 ft 344 kts 319°
2026-04-23 14:56 45.70641 11.57770 18743 ft 342 kts 319°
2026-04-23 14:56 45.72323 11.55364 18257 ft 341 kts 319°
2026-04-23 14:56 45.73995 11.52973 17778 ft 339 kts 319°
2026-04-23 14:57 45.75655 11.50597 17330 ft 336 kts 319°
2026-04-23 14:57 45.77302 11.48231 16881 ft 334 kts 319°
2026-04-23 14:57 45.78935 11.45879 16431 ft 332 kts 319°
2026-04-23 14:57 45.80561 11.43540 15974 ft 330 kts 319°
2026-04-23 14:58 45.82175 11.41217 15525 ft 328 kts 319°
2026-04-23 14:58 45.83787 11.38901 15075 ft 328 kts 319°
2026-04-23 14:58 45.85396 11.36584 14614 ft 327 kts 319°
2026-04-23 14:58 45.86999 11.34269 14176 ft 327 kts 319°
2026-04-23 14:59 45.88601 11.31953 13687 ft 327 kts 319°
2026-04-23 14:59 45.90197 11.29640 13221 ft 325 kts 319°
2026-04-23 14:59 45.91789 11.27334 12780 ft 324 kts 319°
2026-04-23 14:59 45.93372 11.25041 12331 ft 323 kts 318°
2026-04-23 15:00 45.94946 11.22754 11887 ft 321 kts 318°
2026-04-23 15:00 45.96508 11.20483 11435 ft 318 kts 317°
2026-04-23 15:00 45.98067 11.18224 11006 ft 318 kts 317°
2026-04-23 15:00 45.99695 11.16173 10894 ft 303 kts 333°
2026-04-23 15:01 46.01634 11.15250 10790 ft 288 kts 352°
2026-04-23 15:01 46.03586 11.15070 10677 ft 276 kts
2026-04-23 15:01 46.05501 11.15191 10379 ft 274 kts
2026-04-23 15:01 46.07377 11.15396 10227 ft 266 kts
2026-04-23 15:02 46.09193 11.15583 10100 ft 257 kts
2026-04-23 15:02 46.10944 11.15755 9978 ft 248 kts
2026-04-23 15:02 46.12636 11.15571 9848 ft 240 kts 355°
2026-04-23 15:02 46.14260 11.15724 9760 ft 229 kts 14°
2026-04-23 15:03 46.15690 11.16411 9769 ft 205 kts 20°
2026-04-23 15:03 46.17000 11.17148 9495 ft 196 kts 20°
2026-04-23 15:03 46.18224 11.17833 9158 ft 182 kts 20°
2026-04-23 15:03 46.19383 11.18477 8815 ft 177 kts 20°
2026-04-23 15:04 46.20516 11.19097 8466 ft 177 kts 20°
2026-04-23 15:04 46.21667 11.19730 8117 ft 177 kts 20°
2026-04-23 15:04 46.22809 11.20370 7781 ft 175 kts 20°
2026-04-23 15:04 46.23949 11.21008 7434 ft 175 kts 20°
2026-04-23 15:05 46.25088 11.21644 7084 ft 175 kts 20°
2026-04-23 15:05 46.26223 11.22268 6741 ft 174 kts 20°
2026-04-23 15:05 46.27354 11.22889 6390 ft 173 kts 20°
2026-04-23 15:05 46.28481 11.23512 6039 ft 174 kts 20°
2026-04-23 15:06 46.29606 11.24134 5705 ft 173 kts 20°
2026-04-23 15:06 46.30724 11.24770 5360 ft 173 kts 20°
2026-04-23 15:06 46.31836 11.25398 4967 ft 171 kts 20°
2026-04-23 15:06 46.32943 11.26008 4632 ft 169 kts 20°
2026-04-23 15:07 46.34042 11.26613 4295 ft 169 kts 21°
2026-04-23 15:07 46.35141 11.27229 3963 ft 170 kts 21°
2026-04-23 15:07 46.36243 11.27849 3599 ft 169 kts 20°
2026-04-23 15:07 46.37350 11.28461 3248 ft 170 kts 21°
2026-04-23 15:08 46.38404 11.29041 2890 ft 156 kts 22°
2026-04-23 15:08 46.39386 11.29587 2527 ft 148 kts 22°
2026-04-23 15:08 46.40326 11.30131 2239 ft 141 kts 25°
2026-04-23 15:09 46.41965 11.31402 1616 ft 128 kts 18°
2026-04-23 15:09 46.42828 11.31801 1403 ft 132 kts 16°
2026-04-23 15:09 46.43737 11.32018 1207 ft 136 kts 11°
2026-04-23 15:09 46.44648 11.32309 978 ft 133 kts
2026-04-23 15:10 46.45243 11.32406 840 ft 129 kts 15°
2026-04-23 15:10 46.46204 11.32699 789 ft 78 kts 11°
2026-04-23 15:10 46.46576 11.32803 787 ft 24 kts 11°
2026-04-23 15:10 46.46636 11.32820 787 ft 7 kts 11°
2026-04-23 15:11 46.46680 11.32866 787 ft 10 kts 76°
2026-04-23 15:11 46.46634 11.32922 787 ft 6 kts 184°
2026-04-23 15:11 46.46584 11.32915 787 ft 9 kts 188°
2026-04-23 15:11 46.46514 11.32894 787 ft 12 kts 193°
2026-04-23 15:12 46.46424 11.32866 787 ft 15 kts 189°
2026-04-23 15:12 46.46373 11.32853 787 ft 1 kts 189°
2026-04-23 15:12 46.46346 11.32847 787 ft 6 kts 189°
2026-04-23 15:12 46.46295 11.32834 787 ft 9 kts 189°
2026-04-23 15:13 46.46261 11.32834 787 ft 4 kts 157°
2026-04-23 15:13 46.46251 11.32857 787 ft 0 kts 109°
2026-04-23 15:13 46.46248 11.32868 787 ft 3 kts 112°
2026-04-23 15:13 46.46245 11.32886 787 ft 0 kts 104°